Location: Zagreb
(45.8000°N, 16.0000°E)
Time: 20:30:42
(UTC+01:00)

CUTE-I - Pass Details

Date: 06 November 2020
Orbit: 811 x 824 km, 98.7° (Epoch: 01 December)

Event Time Altitude Azimuth Distance (km) Brightness Sun altitude
Rises 06:02:16 0° 18° (NNE) 3,360 ? -7.6°
Reaches altitude 10° 06:04:40 10° 22° (NNE) 2,425 ? -7.2°
Maximum altitude 06:09:56 55° 100° (E) 980 ? -6.4°
Drops below altitude 10° 06:15:11 10° 179° (S) 2,415 ? -5.5°
Sets 06:17:35 0° 183° (S) 3,344 ? -5.1°
